KC5CPO-13 Weather Reports


time (UTC)temp
C
wind
direction
speed
KPH
gust
KPH
rain 1hr
cm
rain 24hr
cm
rain mn
cm
humidity
%
barometer
mb
20260906230553 38 219 3.2 11.3 0.00 0.00 0.00 36
20260906225524 38 214 4.8 11.3 0.00 0.00 0.00 37
20260906224533 38 222 4.8 11.3 0.00 0.00 0.00 37
20260906223524 38 235 6.4 12.9 0.00 0.00 0.00 37
20260906222533 38 238 6.4 14.5 0.00 0.00 0.00 38
20260906221544 38 226 6.4 17.7 0.00 0.00 0.00 36
20260906220552 38 229 4.8 16.1 0.00 0.00 0.00 37
20260906215525 38 216 4.8 16.1 0.00 0.00 0.00 36
20260906214532 38 234 4.8 11.3 0.00 0.00 0.00 36
20260906213524 39 237 4.8 11.3 0.00 0.00 0.00 35
20260906212532 40 219 4.8 11.3 0.00 0.00 0.00 35
20260906211524 39 234 6.4 14.5 0.00 0.00 0.00 35
20260906210533 40 226 4.8 17.7 0.00 0.00 0.00 34
20260906205525 39 221 4.8 12.9 0.00 0.00 0.00 36
20260906204532 38 210 6.4 12.9 0.00 0.00 0.00 36
20260906203525 39 228 6.4 14.5 0.00 0.00 0.00 35
20260906202532 40 225 4.8 12.9 0.00 0.00 0.00 35
20260906201524 39 219 6.4 11.3 0.00 0.00 0.00 36
20260906200552 40 217 6.4 17.7 0.00 0.00 0.00 35
20260906195524 40 216 6.4 16.1 0.00 0.00 0.00 36
20260906194532 38 228 3.2 9.7 0.00 0.00 0.00 39
20260906193524 39 230 6.4 14.5 0.00 0.00 0.00 37
20260906192532 40 221 3.2 14.5 0.00 0.00 0.00 35
20260906191524 38 222 4.8 17.7 0.00 0.00 0.00 37
20260906190532 38 234 4.8 9.7 0.00 0.00 0.00 39
20260906185524 38 228 3.2 11.3 0.00 0.00 0.00 38
20260906184533 38 228 3.2 6.4 0.00 0.00 0.00 39
20260906183525 37 223 3.2 8.0 0.00 0.00 0.00 41
20260906182552 38 239 6.4 19.3 0.00 0.00 0.00 40
20260906181524 37 233 6.4 12.9 0.00 0.00 0.00 40
20260906180532 37 221 4.8 12.9 0.00 0.00 0.00 42
20260906175524 37 229 6.4 11.3 0.00 0.00 0.00 43
20260906174532 37 215 4.8 11.3 0.00 0.00 0.00 42
20260906173544 38 218 4.8 11.3 0.00 0.00 0.00 41
20260906172552 37 233 4.8 11.3 0.00 0.00 0.00 43
20260906171524 36 222 3.2 11.3 0.00 0.00 0.00 45
20260906170553 37 225 4.8 11.3 0.00 0.00 0.00 43
20260906165524 36 230 4.8 11.3 0.00 0.00 0.00 46
20260906164532 36 214 4.8 16.1 0.00 0.00 0.00 46
20260906163524 36 234 4.8 14.5 0.00 0.00 0.00 48
20260906162532 36 237 4.8 12.9 0.00 0.00 0.00 48
20260906161524 35 231 3.2 11.3 0.00 0.00 0.00 52
20260906160532 34 246 3.2 8.0 0.00 0.00 0.00 53
20260906155545 35 224 4.8 11.3 0.00 0.00 0.00 54
20260906154532 34 240 4.8 8.0 0.00 0.00 0.00 55
20260906153524 34 241 1.6 9.7 0.00 0.00 0.00 57
20260906152532 33 204 1.6 6.4 0.00 0.00 0.00 59
20260906151524 32 236 3.2 11.3 0.00 0.00 0.00 61
20260906150532 32 227 3.2 8.0 0.00 0.00 0.00 63
20260906145524 31 215 3.2 11.3 0.00 0.00 0.00 67
20260906144532 30 220 1.6 6.4 0.00 0.00 0.00 71
20260906143525 28 240 3.2 6.4 0.00 0.00 0.00 76
20260906142532 27 249 1.6 6.4 0.00 0.00 0.00 79
20260906141524 27 243 1.6 4.8 0.00 0.00 0.00 81
20260906140532 26 250 1.6 4.8 0.00 0.00 0.00 83
20260906135524 26 209 1.6 4.8 0.00 0.00 0.00 84
20260906134532 25 265 1.6 4.8 0.00 0.00 0.00 86
20260906133544 25 212 1.6 6.4 0.00 0.00 0.00 88
20260906132552 25 256 1.6 3.2 0.00 0.00 0.00 90
20260906131524 23 247 1.6 4.8 0.00 0.00 0.00 92
20260906130532 22 236 0.0 1.6 0.00 0.00 0.00 95
20260906125524 22 0.0 0.0 0.00 0.00 0.00 95
20260906124532 22 0.0 0.0 0.00 0.00 0.00 96
20260906123525 22 0.0 0.0 0.00 0.00 0.00 96
20260906122532 22 0.0 0.0 0.00 0.00 0.00 95
20260906121544 22 0.0 0.0 0.00 0.00 0.00 94
20260906120532 22 0.0 0.0 0.00 0.00 0.00 95
20260906115544 22 0.0 0.0 0.00 0.00 0.00 94
20260906114532 22 0.0 0.0 0.00 0.00 0.00 94
20260906113524 22 0.0 0.0 0.00 0.00 0.00 93
20260906112532 23 0.0 0.0 0.00 0.00 0.00 93
20260906111544 23 0.0 1.6 0.00 0.00 0.00 94
20260906110532 22 242 0.0 1.6 0.00 0.00 0.00 94
20260906105524 22 0.0 0.0 0.00 0.00 0.00 94
20260906104552 22 0.0 0.0 0.00 0.00 0.00 93
20260906103524 22 0.0 0.0 0.00 0.00 0.00 93
20260906102533 23 0.0 0.0 0.00 0.00 0.00 92
20260906101524 23 0.0 0.0 0.00 0.00 0.00 92
20260906100552 23 0.0 0.0 0.00 0.00 0.00 89
20260906095524 23 0.0 0.0 0.00 0.00 0.00 89
20260906094532 23 0.0 0.0 0.00 0.00 0.00 89
20260906093524 24 245 0.0 3.2 0.00 0.00 0.00 88
20260906092533 24 264 0.0 1.6 0.00 0.00 0.00 88
20260906091524 24 232 0.0 1.6 0.00 0.00 0.00 88
20260906090532 24 211 0.0 1.6 0.00 0.00 0.00 87
20260906085524 25 258 0.0 3.2 0.00 0.00 0.00 86
20260906084532 25 224 0.0 3.2 0.00 0.00 0.00 86
20260906083524 25 207 0.0 4.8 0.00 0.00 0.00 86
20260906082532 25 0.0 0.0 0.00 0.00 0.00 85
20260906081524 25 221 0.0 3.2 0.00 0.00 0.00 84
20260906080532 25 261 0.0 3.2 0.00 0.00 0.00 84
20260906075524 26 242 1.6 3.2 0.00 0.00 0.00 83
20260906074532 26 230 1.6 6.4 0.00 0.00 0.00 82
20260906073544 26 228 1.6 6.4 0.00 0.00 0.00 82
20260906072532 26 225 1.6 8.0 0.00 0.00 0.00 81
20260906071544 26 229 1.6 6.4 0.00 0.00 0.00 80
20260906070532 26 234 1.6 6.4 0.00 0.00 0.00 80
20260906065524 26 227 3.2 6.4 0.00 0.00 0.00 80
20260906064532 26 220 3.2 6.4 0.00 0.00 0.00 79
20260906063524 27 237 1.6 3.2 0.00 0.00 0.00 79
20260906062532 27 217 3.2 8.0 0.00 0.00 0.00 78
20260906061524 27 239 0.0 3.2 0.00 0.00 0.00 78
20260906060533 27 227 0.0 3.2 0.00 0.00 0.00 78
20260906055524 27 228 1.6 3.2 0.00 0.00 0.00 77
20260906054532 27 245 0.0 3.2 0.00 0.00 0.00 78
20260906053544 27 236 0.0 3.2 0.00 0.00 0.00 77
20260906052532 27 241 1.6 4.8 0.00 0.00 0.00 77
20260906051605 27 217 1.6 6.4 0.00 0.00 0.00 77
20260906050552 27 263 1.6 3.2 0.00 0.00 0.00 76
20260906045524 27 254 0.0 3.2 0.00 0.00 0.00 76
20260906044532 27 231 1.6 6.4 0.00 0.00 0.00 76
20260906043525 27 227 0.0 3.2 0.00 0.00 0.00 75
20260906042532 27 229 0.0 3.2 0.00 0.00 0.00 74
20260906041525 27 227 1.6 4.8 0.00 0.00 0.00 74
20260906040533 27 216 0.0 4.8 0.00 0.00 0.00 74
20260906035544 28 259 1.6 3.2 0.00 0.00 0.00 74
20260906034532 28 267 0.0 3.2 0.00 0.00 0.00 73
20260906033524 28 0.0 0.0 0.00 0.00 0.00 72
20260906032532 28 228 1.6 6.4 0.00 0.00 0.00 71
20260906031525 29 246 1.6 6.4 0.00 0.00 0.00 71
20260906030532 29 244 1.6 6.4 0.00 0.00 0.00 70
20260906025524 29 251 1.6 6.4 0.00 0.00 0.00 70
20260906024532 29 249 1.6 4.8 0.00 0.00 0.00 69
20260906023524 29 221 1.6 6.4 0.00 0.00 0.00 69
20260906022533 30 241 1.6 9.7 0.00 0.00 0.00 68
20260906021544 30 241 1.6 8.0 0.00 0.00 0.00 67
20260906020532 30 221 1.6 8.0 0.00 0.00 0.00 66
20260906015545 30 223 3.2 11.3 0.00 0.00 0.00 65
20260906014532 31 233 3.2 9.7 0.00 0.00 0.00 63
20260906013524 31 229 4.8 9.7 0.00 0.00 0.00 61
20260906012533 31 226 4.8 16.1 0.00 0.00 0.00 59
20260906011525 32 233 4.8 11.3 0.00 0.00 0.00 55
20260906010534 32 227 8.0 27.4 0.00 0.00 0.00 52
20260906005524 33 228 0.0 3.2 0.00 0.00 0.00 48
20260906004533 33 235 1.6 4.8 0.00 0.00 0.00 47
20260906003524 34 231 1.6 6.4 0.00 0.00 0.00 46
20260906002532 34 210 3.2 8.0 0.00 0.00 0.00 45
20260906001524 35 230 1.6 9.7 0.00 0.00 0.00 44
20260906000533 35 226 1.6 11.3 0.00 0.00 0.00 43
20260905235525 36 232 4.8 11.3 0.00 0.00 0.00 41
20260905234532 37 222 6.4 30.6 0.00 0.00 0.00 38
20260905233525 38 215 3.2 11.3 0.00 0.00 0.00 35
20260905232532 38 231 4.8 11.3 0.00 0.00 0.00 36
20260905231525 39 219 3.2 11.3 0.00 0.00 0.00 35